Location: *
(45.1333°S, 169.6333°W)
Time: 21:23:21
(UTC+00:00)

SJ 16-02 - Pass Details

Date: 26 May 2022
Orbit: 604 x 615 km, 75.0° (Epoch: 01 July)

Event Time Altitude Azimuth Distance (km) Brightness Sun altitude
Rises 06:26:24 0° 200° (SSW) 2,917 5.0 -27.1°
Reaches altitude 10° 06:28:40 10° 198° (SSW) 2,002 4.1 -27.5°
Enters shadow 06:29:54 18° 197° (SSW) 1,517 3.4 -27.7°
